Frontpage

Topic Replies Views Last post
Jesus Christ by choad
0 1496 2008-10-23 09:26:55 by choad
ISP Junta by 2012? by choad
0 1488 2008-10-22 17:23:37 by choad
Oh Dear Dog by choad
0 1458 2008-10-22 02:20:14 by choad
A Teen Sex Primer by Decadence
0 1692 2008-10-20 18:24:00 by Decadence
Kaboom by choad
0 1597 2008-10-19 12:40:23 by choad
0 1531 2008-10-15 22:40:34 by choad
0 1438 2008-10-12 17:15:18 by choad
0 1494 2008-10-11 22:48:27 by choad
Bush Loves Us by choad
0 1517 2008-10-06 01:03:35 by choad
0 1395 2008-10-06 00:06:28 by opsec
The Unreal McCoy by choad
0 1504 2008-10-05 02:02:26 by choad
0 1913 2008-10-01 22:30:31 by choad
Nine for Delivery by choad
0 1479 2008-09-28 18:38:10 by choad
Fascist Fuckery by choad
0 1308 2008-09-26 05:12:42 by choad
0 1280 2008-09-26 03:11:16 by choad
SFW Pr0n by choad
0 1405 2008-09-26 00:45:43 by choad
Cruel Days Comin' by choad
0 1260 2008-09-25 03:16:17 by choad
0 1320 2008-09-24 21:46:14 by fnord
0 1386 2008-09-24 20:39:33 by choad
The Front Fell Off by choad
0 1421 2008-09-18 11:51:47 by choad
Electric Lady Land by choad
0 1350 2008-09-18 03:35:39 by choad
Speed Need by choad
0 1253 2008-09-17 02:06:01 by choad
White Power! by choad
0 1202 2008-09-16 20:22:28 by choad
711 Never Forget! by choad
0 1223 2008-09-11 19:20:00 by choad
Sex Ed Preschool by choad
0 1300 2008-09-10 17:06:47 by choad
0 1128 2008-09-08 23:21:50 by choad
Take The Cake by choad
0 1495 2008-09-08 22:34:38 by choad
Boo! by choad
0 1224 2008-08-25 12:28:34 by choad
Alabama PSA by choad
0 1219 2008-08-21 08:00:35 by choad
Condomned by choad
0 1171 2008-08-21 03:01:46 by choad
That Name is Taken by choad
0 1186 2008-08-21 03:01:10 by choad
Stab That Zit! by choad
0 1233 2008-08-21 03:00:19 by choad
Can You Say Sappy? by choad
0 1192 2008-08-16 01:31:50 by choad
PSA by choad
0 1185 2008-08-14 01:37:54 by choad
0 1191 2008-08-12 03:06:44 by Decadence
Uncomfortably Close by square
0 1234 2008-08-08 02:15:23 by square
0 1255 2008-07-31 00:38:31 by choad
0 1199 2008-07-29 16:35:17 by choad
My First Bra by square
0 1322 2008-07-25 22:51:19 by square
0 1289 2008-07-20 23:02:59 by square
Inky Dreadfuls by square
0 1186 2008-07-20 21:32:51 by square
'For Yule Time's Sake?' by Decadence
0 1155 2008-07-15 07:04:03 by Decadence
Library Porn by choad
0 1310 2008-06-29 20:47:06 by choad
0 1316 2008-06-26 00:25:57 by choad
Superdickery by choad
0 1345 2008-06-24 23:02:17 by choad
Hat Hooligans by choad
0 1319 2008-06-08 23:09:05 by choad
0 1906 2008-06-06 01:42:22 by choad
Garfield Minus Garfield by Decadence
0 1274 2008-06-05 06:58:18 by Decadence
0 2934 2008-06-03 18:31:48 by opsec
0 3206 2008-05-29 18:41:02 by opsec
I Can Haz LOL Pr0n? by Decadence
0 1413 2008-05-28 08:51:21 by Decadence
Great Ass At Large by opsec
0 1387 2008-05-23 10:09:21 by opsec
MS Pain by opsec
0 1312 2008-05-17 22:52:59 by opsec
Photo Bombers by choad
0 1421 2008-05-14 22:53:41 by choad
0 1454 2008-05-07 01:24:00 by choad
Ivan's Playground by choad
0 1349 2008-05-04 17:33:31 by choad
Letters to Billy by choad
0 1351 2008-05-02 18:54:02 by choad
So long, Albert. by choad
0 1350 2008-05-01 00:23:27 by choad
Wanker Cancer Cure by choad
0 1348 2008-04-27 14:05:02 by choad
Brown Joy by opsec
0 1329 2008-04-26 11:40:09 by opsec

Board footer

high-street.org